| time (UTC) | temp F | wind direction | speed knots | gust knots | rain 1hr in | rain 24hr in | rain mn in | humidity % | barometer mb |
| 20260506204601 | 59 | 80 | 0.0 | 0.0 | 0.00 | 0.33 | 0.33 | 88 | 1008.2 |
| 20260506203056 | 58 | 80 | 0.0 | 0.0 | 0.00 | 0.33 | 0.33 | 88 | 1008.2 |
| 20260506201552 | 59 | 80 | 0.0 | 0.0 | 0.00 | 0.33 | 0.33 | 87 | 1008.1 |
| 20260506200049 | 59 | 80 | 0.0 | 0.0 | 0.00 | 0.33 | 0.33 | 87 | 1008.0 |
| 20260506194548 | 59 | 80 | 0.0 | 0.0 | 0.00 | 0.33 | 0.33 | 87 | 1007.8 |
| 20260506193038 | 59 | 82 | 0.0 | 0.0 | 0.00 | 0.33 | 0.33 | 88 | 1007.7 |
| 20260506191534 | 59 | 84 | 0.0 | 0.0 | 0.00 | 0.33 | 0.33 | 88 | 1007.7 |
| 20260506190030 | 59 | 83 | 0.0 | 0.0 | 0.00 | 0.34 | 0.33 | 87 | 1007.6 |
| 20260506184526 | 59 | 83 | 0.0 | 0.0 | 0.00 | 0.34 | 0.33 | 87 | 1007.3 |
| 20260506183021 | 60 | 82 | 0.0 | 0.0 | 0.00 | 0.34 | 0.33 | 87 | 1007.4 |
| 20260506181519 | 60 | 82 | 0.0 | 0.0 | 0.00 | 0.34 | 0.33 | 87 | 1007.3 |
| 20260506180017 | 60 | 69 | 0.0 | 0.0 | 0.00 | 0.36 | 0.33 | 87 | 1007.2 |
| 20260506174509 | 61 | 69 | 0.0 | 0.0 | 0.00 | 0.36 | 0.33 | 87 | 1007.1 |
| 20260506173004 | 60 | 73 | 0.0 | 0.0 | 0.00 | 0.36 | 0.33 | 86 | 1007.1 |
| 20260506171610 | 61 | 76 | 0.0 | 2.6 | 0.00 | 0.36 | 0.33 | 86 | 1007.0 |
| 20260506164610 | 61 | 74 | 0.0 | 0.0 | 0.00 | 0.38 | 0.33 | 87 | 1006.9 |
| 20260506163047 | 62 | 61 | 0.0 | 0.9 | 0.00 | 0.38 | 0.33 | 86 | 1007.0 |
| 20260506161542 | 62 | 80 | 0.0 | 0.9 | 0.00 | 0.38 | 0.33 | 87 | 1007.1 |
| 20260506160046 | 62 | 71 | 0.0 | 0.0 | 0.00 | 0.42 | 0.33 | 87 | 1007.0 |
| 20260506154542 | 63 | 75 | 0.0 | 0.0 | 0.00 | 0.42 | 0.33 | 86 | 1006.9 |
| 20260506153030 | 63 | 86 | 0.0 | 0.0 | 0.01 | 0.42 | 0.33 | 88 | 1007.0 |
| 20260506151525 | 62 | 67 | 0.0 | 0.9 | 0.07 | 0.42 | 0.33 | 91 | 1007.1 |
| 20260506150020 | 61 | 55 | 0.0 | 0.0 | 0.09 | 0.46 | 0.33 | 91 | 1007.2 |
| 20260506144516 | 60 | 60 | 0.0 | 0.0 | 0.13 | 0.46 | 0.33 | 92 | 1007.1 |
| 20260506143011 | 60 | 43 | 0.0 | 0.0 | 0.18 | 0.44 | 0.31 | 90 | 1006.9 |
| 20260506141507 | 60 | 252 | 0.0 | 0.0 | 0.13 | 0.39 | 0.26 | 90 | 1007.7 |
| 20260506140002 | 61 | 192 | 0.0 | 0.0 | 0.13 | 0.36 | 0.24 | 90 | 1007.6 |
| 20260506134558 | 61 | 169 | 0.0 | 0.0 | 0.10 | 0.33 | 0.20 | 89 | 1007.5 |
| 20260506133103 | 62 | 96 | 0.0 | 0.0 | 0.03 | 0.26 | 0.13 | 87 | 1007.6 |
| 20260506131554 | 62 | 83 | 0.0 | 0.0 | 0.02 | 0.25 | 0.13 | 84 | 1007.7 |
| 20260506130047 | 63 | 73 | 0.0 | 0.0 | 0.00 | 0.24 | 0.10 | 81 | 1007.8 |
| 20260506124545 | 63 | 98 | 0.0 | 0.0 | 0.00 | 0.24 | 0.10 | 81 | 1007.9 |
| 20260506123046 | 63 | 109 | 0.0 | 0.0 | 0.00 | 0.24 | 0.10 | 82 | 1008.0 |
| 20260506121551 | 62 | 181 | 0.0 | 0.0 | 0.00 | 0.24 | 0.10 | 84 | 1008.0 |
| 20260506120106 | 62 | 183 | 0.0 | 0.0 | 0.00 | 0.24 | 0.10 | 84 | 1008.1 |
| 20260506114544 | 61 | 186 | 0.0 | 0.0 | 0.01 | 0.24 | 0.10 | 84 | 1008.2 |
| 20260506113036 | 62 | 177 | 0.0 | 0.0 | 0.01 | 0.24 | 0.10 | 83 | 1008.3 |
| 20260506111533 | 61 | 122 | 0.0 | 0.0 | 0.01 | 0.24 | 0.10 | 87 | 1008.3 |
| 20260506110028 | 61 | 213 | 0.0 | 1.7 | 0.01 | 0.28 | 0.10 | 87 | 1008.5 |
| 20260506104524 | 62 | 289 | 0.0 | 0.0 | 0.00 | 0.27 | 0.09 | 85 | 1008.5 |
| 20260506103028 | 62 | 288 | 0.0 | 0.0 | 0.00 | 0.27 | 0.09 | 83 | 1008.6 |
| 20260506101522 | 62 | 288 | 0.0 | 0.0 | 0.00 | 0.27 | 0.09 | 84 | 1008.7 |
| 20260506100018 | 62 | 288 | 0.0 | 0.0 | 0.00 | 0.28 | 0.09 | 84 | 1008.6 |
| 20260506094527 | 61 | 288 | 0.0 | 0.0 | 0.00 | 0.28 | 0.09 | 87 | 1008.7 |
| 20260506093023 | 60 | 290 | 0.0 | 0.0 | 0.01 | 0.28 | 0.09 | 88 | 1008.8 |
| 20260506091512 | 59 | 300 | 0.0 | 0.0 | 0.01 | 0.28 | 0.09 | 89 | 1008.8 |
| 20260506090013 | 59 | 306 | 0.0 | 0.0 | 0.01 | 0.28 | 0.09 | 89 | 1008.6 |
| 20260506084511 | 60 | 299 | 0.0 | 0.0 | 0.01 | 0.28 | 0.09 | 89 | 1008.5 |
| 20260506083010 | 60 | 246 | 0.0 | 0.0 | 0.00 | 0.28 | 0.09 | 92 | 1008.4 |
| 20260506081506 | 59 | 246 | 0.0 | 0.0 | 0.00 | 0.28 | 0.09 | 93 | 1008.4 |
| 20260506073002 | 58 | 95 | 0.0 | 1.7 | 0.01 | 0.28 | 0.09 | 92 | 1008.1 |
| 20260506071602 | 58 | 84 | 0.0 | 0.0 | 0.01 | 0.28 | 0.09 | 92 | 1008.3 |
| 20260506070117 | 57 | 78 | 0.0 | 0.0 | 0.00 | 0.27 | 0.08 | 92 | 1008.4 |
| 20260506061553 | 56 | 70 | 0.0 | 0.0 | 0.06 | 0.27 | 0.08 | 92 | 1008.3 |
| 20260506044557 | 56 | 68 | 0.0 | 0.0 | 0.00 | 0.19 | 0.00 | 90 | 1008.5 |
| 20260506043049 | 56 | 84 | 0.0 | 1.7 | 0.00 | 0.19 | 0.00 | 90 | 1008.2 |
| 20260506041553 | 56 | 92 | 0.0 | 0.9 | 0.00 | 0.19 | 0.00 | 90 | 1008.2 |
| 20260506040046 | 56 | 71 | 0.0 | 0.0 | 0.00 | 0.19 | 0.00 | 91 | 1008.2 |
| 20260506034543 | 55 | 67 | 0.0 | 0.0 | 0.00 | 0.19 | 0.00 | 91 | 1008.6 |
| 20260506033041 | 55 | 82 | 0.0 | 1.7 | 0.00 | 0.19 | 0.00 | 91 | 1008.8 |
| 20260506031554 | 55 | 63 | 0.0 | 0.0 | 0.00 | 0.19 | 0.00 | 91 | 1008.9 |
| 20260506030053 | 54 | 65 | 0.0 | 0.0 | 0.00 | 0.19 | 0.00 | 91 | 1009.1 |
| 20260506024539 | 54 | 71 | 0.0 | 0.0 | 0.00 | 0.19 | 0.00 | 91 | 1008.9 |
| 20260506023038 | 54 | 72 | 0.0 | 0.0 | 0.00 | 0.19 | 0.00 | 91 | 1009.1 |
| 20260506021536 | 54 | 72 | 0.0 | 0.0 | 0.00 | 0.19 | 0.00 | 91 | 1009.1 |
| 20260506020034 | 54 | 73 | 0.0 | 0.0 | 0.00 | 0.19 | 0.00 | 91 | 1009.3 |
| 20260506014533 | 54 | 73 | 0.0 | 0.0 | 0.00 | 0.19 | 0.00 | 91 | 1009.6 |
| 20260506013037 | 54 | 73 | 0.0 | 0.0 | 0.00 | 0.19 | 0.00 | 91 | 1009.5 |
| 20260506011533 | 54 | 73 | 0.0 | 0.0 | 0.00 | 0.19 | 0.00 | 91 | 1009.5 |
| 20260506010034 | 54 | 71 | 0.0 | 0.0 | 0.00 | 0.19 | 0.00 | 91 | 1009.6 |
| 20260506004543 | 55 | 73 | 0.0 | 0.0 | 0.00 | 0.19 | 0.00 | 91 | 1009.4 |
| 20260506003029 | 55 | 74 | 0.0 | 0.0 | 0.00 | 0.19 | 0.00 | 91 | 1009.4 |
| 20260506001527 | 55 | 76 | 0.0 | 0.0 | 0.00 | 0.19 | 0.00 | 91 | 1009.4 |
| 20260506000026 | 55 | 74 | 0.0 | 0.0 | 0.00 | 0.19 | 0.00 | 91 | 1009.7 |
| 20260505234556 | 55 | 62 | 0.0 | 0.0 | 0.00 | 0.19 | 0.00 | 91 | 1009.8 |
| 20260505233022 | 56 | 67 | 0.0 | 0.0 | 0.00 | 0.19 | 0.00 | 91 | 1010.0 |
| 20260505231520 | 56 | 75 | 0.0 | 0.0 | 0.00 | 0.19 | 0.00 | 91 | 1010.1 |
| 20260505230018 | 56 | 74 | 0.0 | 0.0 | 0.00 | 0.19 | 0.00 | 92 | 1010.2 |
| 20260505224526 | 56 | 78 | 0.0 | 0.0 | 0.00 | 0.19 | 0.00 | 92 | 1010.4 |
| 20260505223016 | 56 | 80 | 0.0 | 0.0 | 0.00 | 0.19 | 0.00 | 92 | 1010.5 |
| 20260505221515 | 56 | 65 | 0.0 | 0.0 | 0.00 | 0.19 | 0.00 | 92 | 1010.5 |
| 20260505220014 | 56 | 65 | 0.0 | 0.0 | 0.00 | 0.19 | 0.19 | 92 | 1010.6 |
| 20260505214519 | 56 | 65 | 0.0 | 0.0 | 0.00 | 0.19 | 0.19 | 91 | 1010.6 |
| 20260505213013 | 56 | 65 | 0.0 | 0.0 | 0.00 | 0.19 | 0.19 | 91 | 1010.7 |
| 20260505211513 | 56 | 65 | 0.0 | 0.0 | 0.00 | 0.19 | 0.19 | 91 | 1010.9 |
| 20260505210014 | 56 | 67 | 0.0 | 0.0 | 0.00 | 0.19 | 0.19 | 91 | 1010.8 |